Regional Weather Roundup
Issued by NWS Bismarck, ND

Home | Current Version | Previous Version | Text Only | Print | Product List | Glossary On
Versions: 1 2 3 4 5 6 7 8 9 10 11 12 13 14 15 16 17 18 19 20 21 22 23 24 25 26 27 28 29 30 31 32 33 34 35 36 37 38 39 40 41 42 43 44 45 46 47 48 49 50
000
ASUS43 KBIS 271110
RWRBIS

NWR BROADCAST TEXT
NATIONAL WEATHER SERVICE BISMARCK ND
600 AM CDT SAT AUG 27 2016

NOTE: "FAIR" INDICATES FEW OR NO CLOUDS BELOW 12,000 FEET WITH NO
SIGNIFICANT WEATHER AND/OR OBSTRUCTIONS TO VISIBILITY.


CITY           SKY/WX    TMP DP  RH WIND       PRES   REMARKS
WILLISTON      PTCLDY    46  42  86 CALM      29.91S
MINOT          PTCLDY    56  53  90 SW7       29.89S
MINOT AFB      PTCLDY    50  49  95 SW7       29.88F
BISMARCK       PTCLDY    51  50  96 SE7       29.93F
DICKINSON      CLOUDY    50  47  89 S10       29.92S
GARRISON         N/A     56  54  93 W7        29.91R
HETTINGER ARPT PTCLDY    45  43  93 N3        29.97F
JAMESTOWN      CLOUDY    57  55  93 SE5       29.94F
CARRINGTON     FAIR      54  52  94 SE5       29.95F
HAZEN          FAIR      46  46 100 S5        29.93R
LINTON         FAIR      52  52 100 CALM      29.96F
MANDAN         FAIR      50  50 100 S9        29.94S
OAKES            N/A    N/A N/A N/A MISG        N/A
STANLEY        FAIR      48  48 100 SW3       29.93S
WATFORD CITY   FAIR      46  46 100 SW6       29.92S
$$

CITY           SKY/WX    TMP DP  RH WIND       PRES   REMARKS
GRAND FORKS    CLOUDY    59  56  89 S8        29.95F
GRAND FORKS AF CLOUDY    58  55  91 S5        29.95F
DEVILS LAKE    CLOUDY    55  51  86 SE5       29.93F
FARGO          LGT RAIN  61  58  90 S6        29.98F
CAVALIER       FAIR      50  50 100 S6        29.94S
GRAFTON        FAIR      54  54 100 MISG      29.96F
GWINNER        PTSUNNY   61  59  94 SE5       29.98F
LANGDON        FAIR      52  52 100 S9        29.93S
ROLLA          CLOUDY    55  55 100 SW7       29.91S
$$

CITY           SKY/WX    TMP DP  RH WIND       PRES   REMARKS
ABERDEEN       CLOUDY    59  57  93 S9        29.97F
MOBRIDGE       CLOUDY    57  53  86 CALM      29.92F
BUFFALO          N/A     47  46  97 CALM      29.91S
RAPID CITY     CLOUDY    53  51  93 CALM      30.00S
GLASGOW        CLEAR     47  42  83 E9        29.88S
SIDNEY         CLEAR     45  42  89 CALM      29.91F
WOLF POINT     CLEAR     42  38  85 CALM      29.91F
GLENDIVE       CLEAR     47  43  86 CALM      29.93F
MILES CITY     CLEAR     50  44  80 CALM      29.92F
BAKER          CLEAR     46  44  93 S5        29.96R
$$

CITY           SKY/WX    TMP DP  RH WIND       PRES   REMARKS
BILLINGS       CLEAR     51  41  68 SW7       29.93F
GREAT FALLS    MOCLDY    59  35  40 S13       29.85F
REGINA         CLEAR     43  43 100 SE9       29.87S
ESTEVAN        PTCLDY    43  43 100 SW6       29.90R
$$




USA.gov is the U.S. government's official web portal to all federal, state and local government web resources and services.